www.pogodaiklimat.ru

Погода и климат >> Архив погоды >> Бенин >> Параку


ПОГОДА в Параку

  • Прогноз погоды в Параку
  • Монитор погоды в Параку

АРХИВ ПОГОДЫ в Параку

Время (UTC), дата Ветер
(напр.,м/с)
 
Видим.   Явления Облачность Т
(С)
Тd
(С)
f
(%)
Тe
(С)
Тes
(С)
Комфортность P
(гПа)
Po
(гПа)
Тmin
(С)
Tmax
(С)
R
(мм)
R24
(мм)
S
(см)
00 12.06 Ю 2 10 км 8/0
[Ac trans Ci sp]
+25.5 +22.8 85 +34 +34 очень
душно
1011.1 967.7
03 12.06 З 1 10 км 9/0
[Ac trans Ci sp]
+25.0 +23.0 89 +33 +33 очень
душно
1010.9 967.7
06 12.06 Ю 2 6000 м 9/4 240 м
[Sc Ac As]
+24.0 +23.1 95 +32 +32 очень
душно
1012.2 968.7 +23.4
09 12.06 ЮЗ 4 8000 м 9/9 300 м
[Sc Ci sp]
+27.0 +23.1 79 +36 +37 очень
душно
1014.2 970.6
12 12.06 З 3 10 км 9/8 300 м
[Cu Sc Ac trans Ci sp]
+30.5 +22.6 63 +40 +43 очень
душно
1012.7 969.3
15 12.06 штиль 0 10 км 9/8 330 м
[Cu Sc Ac trans Ci sp]
+31.5 +22.5 59 +41 +43 опасность
перегрева
1009.7 966.5
18 12.06 ЮВ 3 10 км 8/3 600 м
[Cu med, cong Ci sp]
+29.5 +23.2 69 +40 +40 очень
душно
1010.0 966.6 +32.9
21 12.06 С 4 8000 м гроза, ливневой дождь 10/6 300 м
[Cb cap Ac As]
+23.0 +20.9 88 +30 +30 очень
душно
1013.1 969.3
00 13.06 СЗ 3 8000 м гроза без осадков 9/1 300 м
[Cb cap Ac As Ci sp]
+30.0 +18.5 50 +35 +35 очень
душно
1013.1 970.0 14
03 13.06 штиль 0 8000 м гроза без осадков 10/10 240 м
[Cb cap]
+22.6 +22.0 96 +30 +30 очень
душно
1013.4 969.9
06 13.06 штиль 0 8000 м {гроза, дождь} 9/3 240 м
[Sc Ac As Ci sp]
+22.2 +21.6 96 +29 +29 очень
душно
1013.2 969.5 +21.3 17
09 13.06 штиль 0 10 км 9/4 300 м
[Sc Ac As Ci sp]
+24.5 +22.5 89 +32 +38 очень
душно
1015.2 971.1
12 13.06 штиль 0 10 км 9/4 300 м
[Sc Ac trans]
+28.5 +23.4 74 +39 +47 очень
душно
1013.4 969.7
15 13.06 штиль 0 15 км 9/6 600 м
[Cu hum Ac trans Ci sp]
+30.2 +23.1 66 +40 +44 очень
душно
1011.1 967.6
18 13.06 ЮЗ 2 15 км 9/5 300 м
[Cu Sc Ac trans Ci sp]
+28.7 +24.0 76 +40 +40 очень
душно
1011.0 967.4 +31.0
21 13.06 З 1 10 км зарница 9/1 300 м
[Cb cap Ac trans Ci sp]
+26.5 +23.8 85 +36 +36 очень
душно
1012.6 968.9
00 14.06 СЗ 2 10 км 9/0
[Ac As Ci sp]
+25.5 +24.1 92 +35 +35 очень
душно
1012.5 969.0
03 14.06 Ю 1 10 км зарница 8/1 300 м
[Cb cap Ci sp]
+24.5 +23.5 94 +33 +33 очень
душно
1010.8 967.4
06 14.06 штиль 0 10 км 9/5 300 м
[Sc Ac trans]
+24.1 +23.4 96 +32 +32 очень
душно
1013.1 969.5 +23.6
09 14.06 ЮВ 2 10 км 9/9 300 м
[Cu Sc Ci sp]
+26.6 +23.2 82 +36 +37 очень
душно
1014.0 970.4
12 14.06 В 5 15 км 9/9 300 м
[Cb cap Ci sp]
+29.0 +23.9 74 +40 +41 очень
душно
1013.7 970.2
15 14.06 штиль 0 8000 м в посл. час дождь {гроза} 9/3 240 м
[Sc Ac As Ci sp]
+23.1 +21.5 91 +31 +37 очень
душно
1011.0 967.1
18 14.06 СЗ 1 8000 м {гроза, дождь} 9/3 300 м
[Sc Ac As Ci sp]
+24.0 +21.8 88 +31 +31 очень
душно
1011.6 967.7 +29.6 3
21 14.06 штиль 0 8000 м 9/0
[Ac trans Ci sp]
+23.4 +22.1 92 +32 +32 очень
душно
1013.5 969.8
00 15.06 штиль 0 6000 м 8/0
[Ac trans Ci sp]
+22.8 +21.9 95 +31 +31 очень
душно
1013.4 969.7
03 15.06 Ю 2 6000 м 9/6 300 м
[Sc Ac trans Ci sp]
+22.8 +21.6 93 +30 +30 очень
душно
1012.1 968.0
06 15.06 Ю 2 6000 м 9/9 300 м
[Sc Ci sp]
+22.4 +21.8 96 +30 +30 очень
душно
1012.5 968.4 +21.8 3
09 15.06 Ю 2 10 км 9/6 300 м
[Cu Sc Ac trans Ci sp]
+26.0 +22.4 81 +34 +37 очень
душно
1013.6 969.8
12 15.06 Ю 1 10 км 9/8 300 м
[Cu Sc Ac trans Ci sp]
+29.6 +23.7 71 +41 +44 опасность
перегрева
1012.5 968.9
15 15.06 Ю 5 20 км 9/6 300 м
[Cu Sc Ac trans Ci sp]
+29.4 +22.7 67 +39 +40 очень
душно
1011.1 967.5
18 15.06 Ю 2 20 км 8/0
[Ac trans Ci sp]
+27.7 +23.1 76 +37 +37 очень
душно
1011.6 967.9 +30.4
21 15.06 ЮЗ 1 10 км 6/0
[Ci sp]
+26.0 +23.1 84 +35 +35 очень
душно
1013.7 970.0
00 16.06 ЮЗ 1 10 км 6/0
[Ci sp]
+25.0 +22.8 88 +33 +33 очень
душно
1013.8 970.3
03 16.06 ЮЗ 2 10 км 9/5 300 м
[Sc Ci sp]
+23.5 +22.5 94 +31 +31 очень
душно
1012.6 969.0
06 16.06 ЮЗ 4 1500 м туман местами 10/0
[Ac As]
+23.5 +22.9 96 +31 +31 очень
душно
1013.1 969.4 +23.0
09 16.06 З 2 8000 м 10/10 240 м
[Sc]
+26.0 +23.3 85 +35 +35 очень
душно
1014.8 971.0
12 16.06 ЮЗ 2 10 км 9/9 300 м
[Cu Sc Ci sp]
+29.3 +23.2 70 +40 +42 очень
душно
1013.2 969.7
15 16.06 Ю 5 10 км 9/6 300 м
[Cu Sc Ac trans Ci sp]
+30.6 +23.4 65 +41 +42 опасность
перегрева
1010.8 967.4
18 16.06 Ю 4 10 км 6/1 330 м
[Sc Ci sp]
+29.2 +23.1 70 +39 +39 очень
душно
1011.2 967.7 +31.4
21 16.06 штиль 0 10 км 6/0
[Ci sp]
+26.8 +23.5 82 +36 +36 очень
душно
1013.2 969.6
00 17.06 штиль 0 10 км 6/0
[Ci sp]
+26.0 +23.1 84 +35 +35 очень
душно
1013.2 969.8
03 17.06 Ю 3 10 км 10/10 240 м
[Sc]
+24.5 +23.3 93 +33 +33 очень
душно
1012.0 968.6
06 17.06 ЮЗ 3 6000 м 10/10 240 м
[Sc]
+25.0 +23.6 92 +34 +34 очень
душно
1012.3 968.8 +23.9
09 17.06 ЮЗ 4 6000 м 10/10 240 м
[Sc]
+26.0 +23.4 86 +35 +35 очень
душно
1013.6 970.0
12 17.06 З 3 10 км 9/9 300 м
[Cu Sc Ci sp]
+29.0 +23.3 71 +39 +41 очень
душно
1012.3 968.9
15 17.06 СВ 2 10 км 9/8 330 м
[Cu Sc Ci sp]
+31.2 +23.1 62 +41 +43 опасность
перегрева
1010.6 967.3
18 17.06 СВ 3 10 км 9/3 600 м
[Cu hum Ac trans Ci sp]
+28.5 +22.8 71 +38 +38 очень
душно
1011.5 968.0 +31.9
21 17.06 ЮЗ 3 10 км 6/0
[Ac trans Ci sp]
+26.4 +23.4 84 +36 +36 очень
душно
1013.9 970.2
00 18.06 Ю 3 10 км 6/0
[Ci sp]
+25.4 +23.4 89 +34 +34 очень
душно
1013.7 970.1
03 18.06 ЮЗ 3 10 км 6/0
[Ci sp]
+24.0 +22.8 93 +32 +32 очень
душно
1012.5 969.1
06 18.06 ЮЗ 3 1200 м дымка 10/10 240 м
[Sc]
+23.9 +23.3 96 +32 +32 очень
душно
1014.1 970.4 +23.4
09 18.06 Ю 3 1200 м дымка {туман} 10/10 240 м
[Sc]
+25.5 +23.3 88 +34 +34 очень
душно
1014.9 971.1
12 18.06 Ю 3 8000 м {туман} 9/8 330 м
[Cu Sc Ci sp]
+29.9 +23.1 67 +40 +43 очень
душно
1013.1 969.7
15 18.06 ЮВ 5 10 км 9/6 600 м
[Cu med, cong Ci sp]
+32.3 +23.3 59 +43 +45 опасность
перегрева
1011.0 967.7
18 18.06 ЮВ 5 10 км 9/3 600 м
[Cu hum Ac trans Ci sp]
+30.0 +23.3 67 +40 +40 очень
душно
1011.2 967.8 +33.0
21 18.06 Ю 2 10 км 6/0
[Ci sp]
+27.5 +23.1 77 +37 +37 очень
душно
1012.3 968.8

 

Местоположение метеостанции Параку (Бенин): широта 9.35 долгота 2.62 высота над уровнем моря 393 м.

В архиве по умолчанию представлена погода в Параку за последнюю неделю. Архивные данные за месяц целиком и за предыдущие месяцы, начиная с января 2011 года, Вы можете получить, выбрав интересующий диапазон дат из раскрывающегося списка и нажав кнопку "Ввод!".


*Определитесь, кто Вы:
робот инопланетянин человек

Внимание! Время в таблицах - всемирное. Для получения местного времени необходимо прибавить поправку, которая равна 1 ч.

Смотрите также архив погоды в соседних городах и на ближайших метеорологических станциях:

Погода в Саве (Бенин) (148 км)
Погода в Каре (Того) (161 км)
Погода в Сокоде (Того) (167 км)
Погода в Ньамтугу (Того) (173 км)
Погода в Натитингу (Бенин) (174 км)
Погода в Канди (Бенин) (201 км)
Погода в Илорине (Нигерия) (236 км)
Погода в Боиконе (Бенин) (250 км)
Погода в Ибадане (Нигерия) (256 км)
Погода в Атакпаме (Того) (257 км)

Пояснения к столбцам:

Ветер - указаны скорость ветра в м/с - средняя за 10 мин, порывы в срок и между сроками (в фигурных скобках) и направление, откуда дует ветер: С - северный, СВ - северо-восточный, В - восточный, ЮВ - юго-восточный, Ю - южный, ЮЗ - юго-западный, З - западный, СЗ - северо-западный.
Видимость - горизонтальная дальность видимости в метрах или километрах. При видимости от 1 до 10 км при отсутствии осадков обычно наблюдается дымка, при ухудшении видимости до 1 км и менее - туман. В сухую погоду видимость может ухудшаться дымом, пылью или мглою.
Явления - указаны атмосферные явления, наблюдавшиеся в срок или в последний час перед сроком; фигурными скобками обозначены явления, наблюдавшиеся между сроками (за 1-3 часа до срока); квадратными скобками обозначены град или гололедные отложения с указанием их диаметра в мм.
Облачность - указаны через наклонную черту общая и нижняя облачность в баллах и высота нижней границы облаков в метрах; квадратными скобками обозначены формы облаков: Ci - перистые, Cs - перисто-слоистые, Cc - перисто-кучевые, Ac - высококучевые, As - высокослоистые, Sc - слоисто-кучевые, Ns - слоисто-дождевые, Cu - кучевые, Cb - кучево-дождевые. Подробнее классификацию облаков см. в Атласе облаков (PDF).
T - Температура воздуха - температура, измеренная на высоте 2 м над землей.
Td - Температура точки росы - температура, при понижении до которой содержащийся в воздухе водяной пар достигнет насыщения.
f - Относительная влажность воздуха - влажноcть воздуха, измеренная на высоте 2 м над землей.
Te - Эффективная температура - температура, которую ощущает одетый по сезону человек в тени. Характеристика душности погоды. При расчете учитывается влияние влажности воздуха и скорости ветра на теплоощущения человека.
Tes - Эффективная температура на солнце - температура, которую ощущает человек, с поправкой на солнечный нагрев. Характеристика знойности погоды. Зависит от высоты солнца над горизонтом, облачности и скорости ветра. Ночью, в пасмурную погоду, а также при ветре 12 м/с и более поправка равна нулю.
P - Атмосферное давление - приведенное к уровню моря атмосферное давление.
Po - Атмосферное давление - измеренное на уровне метеостанции атмосферное давление.
Tmin - Минимальная температура - минимум температуры воздуха на высоте 2 м над землей.
Tmax - Максимальная температура - максимум температуры воздуха на высоте 2 м над землей.
R - Количество осадков - Количество выпавших осадков за период времени, мм. При наведении курсора мыши на число - период времени, за который выпало указанное количество осадков.
R24 - Количество осадков - Количество выпавших осадков за 24 часа, мм.
S - Снежный покров - Высота снежного покрова, см. При наведении курсора мыши на число - состояние снежного покрова и степень покрытия местности в баллах.